Location: Newark
(13.8117°N, 3.6025°W)
Time: 01:44:00
(UTC+00:00)

Vanguard 2 - Pass Details

Date: 01 September 2019
Orbit: 554 x 2937 km, 32.9° (Epoch: 17 October)

Event Time Altitude Azimuth Distance (km) Brightness Sun altitude
Rises 12:19:51 0° 322° (NW) 2,950 10.5 84.3°
Reaches altitude 10° 12:23:56 10° 359° (N) 2,350 10.1 84.0°
Maximum altitude 12:25:33 11° 17° (NNE) 2,411 10.2 83.8°
Drops below altitude 10° 12:27:21 10° 34° (NE) 2,670 10.4 83.6°
Sets 12:33:13 0° 66° (ENE) 4,248 11.3 82.8°
